When you browse on this site, cookies collect data to enhance your experience and personalize the content and advertising you see.
Visit our Privacy Policy to learn more. By continuing to use the site, you agree to this use of cookies and data.
  • In Spain
  • List of Countries
  • For 7 days
  • Water Temperature
  • Satellite Maps
  • Weather Map
  • Weather Widgets
  • user-avatar
    Login

    Hourly Weather Canillo

    Today, 17 June, Monday

    Time Temperature Precipitation Wind Pressure Humidity
    00:00 +10°C° 0 mm 1 mps 619 mmHg 80%
    01:00 +10°C° 0 mm 1 mps 619 mmHg 77%
    02:00 +9°C° 0 mm 1 mps 619 mmHg 75%
    03:00 +9°C° 0 mm 1 mps 619 mmHg 72%
    04:00 +10°C° 0 mm 1 mps 619 mmHg 71%
    05:00 +12°C° 0 mm 1 mps 620 mmHg 69%
    06:00 +13°C° 0 mm 1 mps 620 mmHg 68%
    07:00 +15°C° 0 mm 1 mps 621 mmHg 59%
    08:00 +18°C° 0 mm 1 mps 622 mmHg 51%
    09:00 +20°C° 0 mm 1 mps 623 mmHg 42%
    10:00 +20°C° 0 mm 1 mps 623 mmHg 42%
    11:00 +20°C° 0 mm 2 mps 623 mmHg 41%
    12:00 +20°C° 0 mm 2 mps 623 mmHg 40%
    13:00 +20°C° 0.2 mm 2 mps 622 mmHg 42%
    14:00 +21°C° 0.2 mm 1 mps 622 mmHg 45%
    15:00 +21°C° 0.2 mm 1 mps 621 mmHg 47%
    16:00 +20°C° 0.1 mm 1 mps 621 mmHg 52%
    17:00 +19°C° 0.1 mm 1 mps 621 mmHg 57%
    18:00 +19°C° 0.1 mm 1 mps 620 mmHg 62%
    19:00 +15°C° 0 mm 1 mps 620 mmHg 68%
    20:00 +13°C° 0 mm 1 mps 619 mmHg 73%
    21:00 +11°C° 0 mm 1 mps 618 mmHg 79%
    22:00 +11°C° 0 mm 1 mps 618 mmHg 77%
    23:00 +11°C° 0 mm 1 mps 618 mmHg 75%

    Tomorrow, 18 June, Tuesday

    Time Temperature Precipitation Wind Pressure Humidity
    00:00 +11°C° 0 mm 1 mps 618 mmHg 73%
    01:00 +11°C° 0 mm 1 mps 618 mmHg 72%
    02:00 +11°C° 0 mm 1 mps 618 mmHg 71%
    03:00 +11°C° 0 mm 1 mps 617 mmHg 69%
    04:00 +12°C° 0 mm 1 mps 618 mmHg 66%
    05:00 +13°C° 0 mm 1 mps 618 mmHg 63%
    06:00 +14°C° 0 mm 1 mps 619 mmHg 61%
    07:00 +16°C° 0 mm 2 mps 619 mmHg 53%
    08:00 +18°C° 0 mm 2 mps 620 mmHg 45%
    09:00 +20°C° 0 mm 2 mps 621 mmHg 37%
    10:00 +21°C° 0 mm 3 mps 621 mmHg 36%
    11:00 +22°C° 0 mm 3 mps 621 mmHg 34%
    12:00 +22°C° 0 mm 4 mps 621 mmHg 32%
    13:00 +22°C° 0 mm 4 mps 621 mmHg 33%
    14:00 +22°C° 0 mm 4 mps 621 mmHg 33%
    15:00 +22°C° 0 mm 4 mps 620 mmHg 33%
    16:00 +21°C° 0 mm 3 mps 620 mmHg 39%
    17:00 +20°C° 0 mm 3 mps 619 mmHg 44%
    18:00 +19°C° 0 mm 2 mps 619 mmHg 49%
    19:00 +16°C° 0 mm 2 mps 618 mmHg 55%
    20:00 +14°C° 0 mm 2 mps 618 mmHg 60%
    21:00 +12°C° 0 mm 1 mps 617 mmHg 65%
    22:00 +12°C° 0 mm 1 mps 617 mmHg 64%
    23:00 +11°C° 0 mm 1 mps 617 mmHg 62%

    Day after tomorrow, 19 June, Wednesday

    Time Temperature Precipitation Wind Pressure Humidity
    00:00 +11°C° 0 mm 1 mps 617 mmHg 61%
    01:00 +11°C° 0 mm 1 mps 617 mmHg 60%
    02:00 +11°C° 0 mm 1 mps 617 mmHg 59%
    03:00 +10°C° 0 mm 1 mps 616 mmHg 57%
    04:00 +12°C° 0 mm 1 mps 617 mmHg 57%
    05:00 +13°C° 0 mm 1 mps 618 mmHg 57%
    06:00 +14°C° 0 mm 1 mps 619 mmHg 57%
    07:00 +16°C° 0 mm 1 mps 619 mmHg 49%
    08:00 +18°C° 0 mm 2 mps 620 mmHg 42%
    09:00 +19°C° 0 mm 2 mps 621 mmHg 35%
    10:00 +20°C° 0 mm 2 mps 621 mmHg 34%
    11:00 +21°C° 0 mm 3 mps 621 mmHg 33%
    12:00 +21°C° 0 mm 3 mps 621 mmHg 32%
    13:00 +21°C° 0 mm 3 mps 621 mmHg 33%
    14:00 +21°C° 0 mm 3 mps 620 mmHg 34%
    15:00 +21°C° 0 mm 3 mps 620 mmHg 34%
    16:00 +20°C° 0 mm 3 mps 620 mmHg 42%
    17:00 +19°C° 0 mm 2 mps 619 mmHg 50%
    18:00 +18°C° 0 mm 2 mps 619 mmHg 58%
    19:00 +16°C° 0 mm 1 mps 618 mmHg 63%
    20:00 +14°C° 0 mm 1 mps 618 mmHg 69%
    21:00 +11°C° 0 mm 0 mps 617 mmHg 74%
    22:00 +12°C° 0 mm 1 mps 617 mmHg 73%
    23:00 +12°C° 0 mm 1 mps 617 mmHg 71%

    20 June, Thursday

    Time Temperature Precipitation Wind Pressure Humidity
    00:00 +12°C° 0 mm 1 mps 617 mmHg 70%
    01:00 +11°C° 0 mm 1 mps 617 mmHg 70%
    02:00 +11°C° 0 mm 1 mps 617 mmHg 71%
    03:00 +11°C° 0 mm 1 mps 617 mmHg 72%
    04:00 +12°C° 0 mm 1 mps 617 mmHg 70%
    05:00 +12°C° 0 mm 0 mps 618 mmHg 69%
    06:00 +13°C° 0 mm 0 mps 619 mmHg 68%
    07:00 +15°C° 0 mm 1 mps 619 mmHg 61%
    08:00 +18°C° 0 mm 1 mps 620 mmHg 55%
    09:00 +18°C° 0 mm 2 mps 621 mmHg 48%
    10:00 +19°C° 0 mm 3 mps 621 mmHg 46%
    11:00 +20°C° 0 mm 3 mps 621 mmHg 44%
    12:00 +20°C° 0 mm 4 mps 621 mmHg 42%
    13:00 +20°C° 0 mm 4 mps 621 mmHg 46%
    14:00 +19°C° 0 mm 4 mps 620 mmHg 49%
    15:00 +19°C° 0 mm 4 mps 620 mmHg 52%
    16:00 +18°C° 0.3 mm 3 mps 619 mmHg 62%
    17:00 +16°C° 0.3 mm 2 mps 619 mmHg 72%
    18:00 +15°C° 0.3 mm 1 mps 618 mmHg 81%
    19:00 +14°C° 0.2 mm 1 mps 618 mmHg 85%
    20:00 +13°C° 0.2 mm 1 mps 618 mmHg 89%
    21:00 +12°C° 0.2 mm 1 mps 617 mmHg 93%
    22:00 +11°C° 0 mm 1 mps 617 mmHg 93%
    23:00 +10°C° 0 mm 0 mps 617 mmHg 94%

    21 June, Friday

    Time Temperature Precipitation Wind Pressure Humidity
    00:00 +9°C° 0 mm 0 mps 617 mmHg 94%
    01:00 +9°C° 0 mm 0 mps 617 mmHg 94%
    02:00 +10°C° 0 mm 1 mps 617 mmHg 94%
    03:00 +10°C° 0 mm 1 mps 617 mmHg 94%
    04:00 +10°C° 0.1 mm 1 mps 617 mmHg 93%
    05:00 +11°C° 0.1 mm 1 mps 618 mmHg 92%
    06:00 +11°C° 0.1 mm 1 mps 618 mmHg 91%
    07:00 +12°C° 0.3 mm 1 mps 619 mmHg 88%
    08:00 +13°C° 0.3 mm 1 mps 619 mmHg 84%
    09:00 +14°C° 0.3 mm 1 mps 620 mmHg 80%
    10:00 +14°C° 0.9 mm 1 mps 620 mmHg 82%
    11:00 +14°C° 0.9 mm 2 mps 620 mmHg 84%
    12:00 +14°C° 0.9 mm 2 mps 620 mmHg 86%
    13:00 +14°C° 1.2 mm 2 mps 619 mmHg 86%
    14:00 +14°C° 1.2 mm 2 mps 619 mmHg 87%
    15:00 +14°C° 1.2 mm 1 mps 619 mmHg 88%
    16:00 +14°C° 0.7 mm 1 mps 619 mmHg 88%
    17:00 +13°C° 0.7 mm 1 mps 619 mmHg 88%
    18:00 +13°C° 0.7 mm 1 mps 619 mmHg 89%
    19:00 +12°C° 0.1 mm 1 mps 619 mmHg 91%
    20:00 +11°C° 0.1 mm 1 mps 619 mmHg 93%
    21:00 +10°C° 0.1 mm 1 mps 618 mmHg 96%
    22:00 +10°C° 0 mm 1 mps 618 mmHg 95%
    23:00 +9°C° 0 mm 1 mps 618 mmHg 95%

    22 June, Saturday

    Time Temperature Precipitation Wind Pressure Humidity
    00:00 +9°C° 0 mm 1 mps 618 mmHg 94%
    01:00 +9°C° 0 mm 1 mps 618 mmHg 93%
    02:00 +9°C° 0 mm 1 mps 618 mmHg 93%
    03:00 +9°C° 0 mm 1 mps 618 mmHg 93%
    04:00 +10°C° 0 mm 1 mps 618 mmHg 91%
    05:00 +11°C° 0 mm 1 mps 619 mmHg 90%
    06:00 +12°C° 0 mm 1 mps 619 mmHg 89%
    07:00 +14°C° 0 mm 1 mps 620 mmHg 81%
    08:00 +15°C° 0 mm 1 mps 620 mmHg 73%
    09:00 +17°C° 0 mm 2 mps 621 mmHg 65%
    10:00 +18°C° 0.1 mm 2 mps 621 mmHg 62%
    11:00 +18°C° 0.1 mm 2 mps 621 mmHg 59%
    12:00 +19°C° 0.1 mm 2 mps 621 mmHg 56%
    13:00 +19°C° 0.4 mm 2 mps 621 mmHg 59%
    14:00 +19°C° 0.4 mm 2 mps 621 mmHg 62%
    15:00 +19°C° 0.4 mm 2 mps 620 mmHg 65%
    16:00 +18°C° 0.2 mm 2 mps 620 mmHg 67%
    17:00 +18°C° 0.2 mm 1 mps 620 mmHg 70%
    18:00 +18°C° 0.2 mm 1 mps 619 mmHg 73%
    19:00 +15°C° 0 mm 1 mps 619 mmHg 75%
    20:00 +14°C° 0 mm 1 mps 619 mmHg 77%
    21:00 +12°C° 0 mm 1 mps 618 mmHg 79%
    22:00 +12°C° 0 mm 1 mps 618 mmHg 79%
    23:00 +12°C° 0 mm 1 mps 618 mmHg 78%
    Show more